When you browse on this site, cookies collect data to enhance your experience and personalize the content and advertising you see.
Visit our Privacy Policy to learn more. By continuing to use the site, you agree to this use of cookies and data.
  • In Österreich
  • Länderverzeichnis
  • Für 7 Tage
  • Wassertemperatur
  • Wetterkarte
  • News
  • Widgets
  • user-avatar
    Anmelden

    Stündliche Wetter Saidpur

    Heute, 17 Februar, Montag

    Zeit Temperatur Niederschläge Wind Luftdruck Luftfeuchtigkeit
    00:00 +22°C° 0 mm 1 m/S 759 mmHg 50%
    01:00 +21°C° 0 mm 2 m/S 759 mmHg 53%
    02:00 +20°C° 0 mm 2 m/S 758 mmHg 55%
    03:00 +20°C° 0 mm 2 m/S 758 mmHg 58%
    04:00 +19°C° 0 mm 2 m/S 758 mmHg 61%
    05:00 +19°C° 0 mm 2 m/S 758 mmHg 64%
    06:00 +18°C° 0 mm 2 m/S 758 mmHg 72%
    07:00 +19°C° 0 mm 2 m/S 759 mmHg 67%
    08:00 +21°C° 0 mm 2 m/S 759 mmHg 63%
    09:00 +23°C° 0 mm 2 m/S 760 mmHg 58%
    10:00 +25°C° 0 mm 2 m/S 759 mmHg 50%
    11:00 +27°C° 0 mm 2 m/S 759 mmHg 42%
    12:00 +29°C° 0 mm 2 m/S 760 mmHg 38%
    13:00 +29°C° 0 mm 2 m/S 759 mmHg 35%
    14:00 +30°C° 0 mm 2 m/S 758 mmHg 32%
    15:00 +30°C° 0 mm 2 m/S 757 mmHg 30%
    16:00 +29°C° 0 mm 2 m/S 757 mmHg 32%
    17:00 +28°C° 0 mm 2 m/S 757 mmHg 35%
    18:00 +27°C° 0 mm 2 m/S 756 mmHg 38%
    19:00 +26°C° 0 mm 2 m/S 757 mmHg 42%
    20:00 +25°C° 0 mm 3 m/S 757 mmHg 46%
    21:00 +24°C° 0 mm 3 m/S 758 mmHg 50%
    22:00 +24°C° 0 mm 3 m/S 758 mmHg 52%
    23:00 +22°C° 0 mm 3 m/S 758 mmHg 55%

    Morgen, 18 Februar, Dienstag

    Zeit Temperatur Niederschläge Wind Luftdruck Luftfeuchtigkeit
    00:00 +21°C° 0 mm 3 m/S 757 mmHg 57%
    01:00 +21°C° 0 mm 2 m/S 757 mmHg 59%
    02:00 +20°C° 0 mm 2 m/S 757 mmHg 62%
    03:00 +20°C° 0 mm 2 m/S 756 mmHg 64%
    04:00 +19°C° 0 mm 2 m/S 756 mmHg 65%
    05:00 +19°C° 0 mm 2 m/S 757 mmHg 67%
    06:00 +18°C° 0 mm 2 m/S 757 mmHg 68%
    07:00 +20°C° 0 mm 2 m/S 757 mmHg 64%
    08:00 +21°C° 0 mm 3 m/S 758 mmHg 59%
    09:00 +24°C° 0 mm 3 m/S 758 mmHg 54%
    10:00 +25°C° 0 mm 3 m/S 758 mmHg 49%
    11:00 +27°C° 0 mm 3 m/S 758 mmHg 44%
    12:00 +29°C° 0 mm 3 m/S 757 mmHg 39%
    13:00 +30°C° 0 mm 3 m/S 757 mmHg 36%
    14:00 +30°C° 0 mm 3 m/S 756 mmHg 32%
    15:00 +31°C° 0 mm 3 m/S 755 mmHg 29%
    16:00 +30°C° 0 mm 3 m/S 755 mmHg 31%
    17:00 +29°C° 0 mm 3 m/S 755 mmHg 33%
    18:00 +27°C° 0 mm 3 m/S 755 mmHg 36%
    19:00 +26°C° 0 mm 3 m/S 756 mmHg 38%
    20:00 +25°C° 0 mm 3 m/S 757 mmHg 41%
    21:00 +24°C° 0 mm 3 m/S 757 mmHg 43%
    22:00 +24°C° 0 mm 2 m/S 757 mmHg 45%
    23:00 +23°C° 0 mm 2 m/S 757 mmHg 46%

    übermorgen, 19 Februar, Mittwoch

    Zeit Temperatur Niederschläge Wind Luftdruck Luftfeuchtigkeit
    00:00 +21°C° 0 mm 2 m/S 757 mmHg 48%
    01:00 +20°C° 0 mm 2 m/S 757 mmHg 47%
    02:00 +20°C° 0 mm 2 m/S 757 mmHg 47%
    03:00 +19°C° 0 mm 2 m/S 757 mmHg 46%
    04:00 +20°C° 0 mm 1 m/S 757 mmHg 47%
    05:00 +19°C° 0 mm 1 m/S 757 mmHg 48%
    06:00 +19°C° 0 mm 1 m/S 757 mmHg 49%
    07:00 +20°C° 0 mm 1 m/S 758 mmHg 45%
    08:00 +22°C° 0 mm 1 m/S 758 mmHg 42%
    09:00 +24°C° 0 mm 1 m/S 759 mmHg 38%
    10:00 +26°C° 0 mm 2 m/S 759 mmHg 34%
    11:00 +28°C° 0 mm 2 m/S 758 mmHg 29%
    12:00 +29°C° 0 mm 2 m/S 758 mmHg 24%
    13:00 +30°C° 0 mm 2 m/S 757 mmHg 23%
    14:00 +30°C° 0 mm 2 m/S 756 mmHg 21%
    15:00 +31°C° 0 mm 2 m/S 756 mmHg 20%
    16:00 +30°C° 0 mm 2 m/S 756 mmHg 22%
    17:00 +28°C° 0 mm 2 m/S 756 mmHg 25%
    18:00 +27°C° 0 mm 1 m/S 755 mmHg 27%
    19:00 +26°C° 0 mm 1 m/S 756 mmHg 29%
    20:00 +25°C° 0 mm 2 m/S 757 mmHg 32%
    21:00 +24°C° 0 mm 2 m/S 757 mmHg 34%
    22:00 +24°C° 0 mm 2 m/S 757 mmHg 36%
    23:00 +23°C° 0 mm 2 m/S 757 mmHg 38%

    20 Februar, Donnerstag

    Zeit Temperatur Niederschläge Wind Luftdruck Luftfeuchtigkeit
    00:00 +22°C° 0 mm 1 m/S 757 mmHg 40%
    01:00 +22°C° 0 mm 1 m/S 757 mmHg 42%
    02:00 +21°C° 0 mm 1 m/S 757 mmHg 45%
    03:00 +21°C° 0 mm 1 m/S 757 mmHg 47%
    04:00 +20°C° 0 mm 1 m/S 757 mmHg 48%
    05:00 +20°C° 0 mm 1 m/S 757 mmHg 49%
    06:00 +20°C° 0 mm 1 m/S 757 mmHg 50%
    07:00 +22°C° 0 mm 1 m/S 758 mmHg 45%
    08:00 +23°C° 0 mm 1 m/S 759 mmHg 41%
    09:00 +23°C° 0 mm 0 m/S 760 mmHg 36%
    10:00 +27°C° 0 mm 1 m/S 760 mmHg 31%
    11:00 +29°C° 0 mm 2 m/S 759 mmHg 26%
    12:00 +31°C° 0 mm 2 m/S 759 mmHg 21%
    13:00 +32°C° 0 mm 2 m/S 758 mmHg 19%
    14:00 +32°C° 0 mm 1 m/S 758 mmHg 17%
    15:00 +32°C° 0 mm 1 m/S 757 mmHg 15%
    16:00 +31°C° 0 mm 1 m/S 757 mmHg 17%
    17:00 +29°C° 0 mm 1 m/S 757 mmHg 19%
    18:00 +28°C° 0 mm 1 m/S 757 mmHg 20%
    19:00 +27°C° 0 mm 1 m/S 757 mmHg 22%
    20:00 +26°C° 0 mm 1 m/S 758 mmHg 23%
    21:00 +25°C° 0 mm 1 m/S 758 mmHg 25%
    22:00 +24°C° 0 mm 1 m/S 758 mmHg 26%
    23:00 +23°C° 0 mm 2 m/S 758 mmHg 28%

    21 Februar, Freitag

    Zeit Temperatur Niederschläge Wind Luftdruck Luftfeuchtigkeit
    00:00 +23°C° 0 mm 2 m/S 758 mmHg 29%
    01:00 +21°C° 0 mm 2 m/S 758 mmHg 32%
    02:00 +20°C° 0 mm 3 m/S 758 mmHg 35%
    03:00 +20°C° 0 mm 3 m/S 758 mmHg 38%
    04:00 +19°C° 0 mm 3 m/S 758 mmHg 43%
    05:00 +19°C° 0 mm 2 m/S 758 mmHg 48%
    06:00 +18°C° 0 mm 2 m/S 758 mmHg 53%
    07:00 +20°C° 0 mm 2 m/S 759 mmHg 49%
    08:00 +22°C° 0 mm 3 m/S 760 mmHg 45%
    09:00 +25°C° 0 mm 4 m/S 761 mmHg 41%
    10:00 +27°C° 0 mm 4 m/S 761 mmHg 36%
    11:00 +29°C° 0 mm 4 m/S 761 mmHg 30%
    12:00 +32°C° 0 mm 4 m/S 761 mmHg 25%
    19:00 +28°C° 0 mm 1 m/S 758 mmHg 25%
    20:00 +27°C° 0 mm 1 m/S 759 mmHg 26%
    21:00 +26°C° 0 mm 2 m/S 760 mmHg 27%
    22:00 +26°C° 0 mm 2 m/S 759 mmHg 29%
    23:00 +25°C° 0 mm 2 m/S 759 mmHg 31%

    22 Februar, Samstag

    Zeit Temperatur Niederschläge Wind Luftdruck Luftfeuchtigkeit
    00:00 +24°C° 0 mm 2 m/S 759 mmHg 34%
    01:00 +24°C° 0 mm 2 m/S 759 mmHg 36%
    02:00 +23°C° 0 mm 2 m/S 759 mmHg 38%
    03:00 +23°C° 0 mm 2 m/S 759 mmHg 40%
    04:00 +23°C° 0 mm 1 m/S 759 mmHg 41%
    05:00 +23°C° 0 mm 1 m/S 759 mmHg 42%
    06:00 +22°C° 0 mm 1 m/S 759 mmHg 43%
    07:00 +24°C° 0 mm 1 m/S 760 mmHg 41%
    08:00 +25°C° 0 mm 2 m/S 760 mmHg 39%
    09:00 +27°C° 0 mm 3 m/S 761 mmHg 37%
    10:00 +29°C° 0 mm 3 m/S 760 mmHg 33%
    11:00 +30°C° 0 mm 3 m/S 760 mmHg 30%
    12:00 +33°C° 0 mm 3 m/S 760 mmHg 26%
    13:00 +34°C° 0 mm 2 m/S 759 mmHg 24%
    14:00 +35°C° 0 mm 2 m/S 758 mmHg 23%
    15:00 +34°C° 0 mm 1 m/S 757 mmHg 22%
    16:00 +33°C° 0 mm 1 m/S 757 mmHg 24%
    17:00 +32°C° 0 mm 1 m/S 757 mmHg 26%
    18:00 +31°C° 0 mm 1 m/S 757 mmHg 28%
    19:00 +29°C° 0 mm 1 m/S 757 mmHg 30%
    20:00 +28°C° 0 mm 1 m/S 758 mmHg 32%
    21:00 +27°C° 0 mm 1 m/S 758 mmHg 34%
    22:00 +27°C° 0.1 mm 1 m/S 758 mmHg 37%
    23:00 +26°C° 0.1 mm 2 m/S 758 mmHg 40%
    Mehr zeigen